Regional Weather Roundup
Issued by NWS Sioux Falls, SD

Home | Current Version | Previous Version | Graphics & Text | Print | Product List | Glossary On
Versions: 1 2 3 4 5 6 7 8 9 10 11 12 13 14 15 16 17 18 19 20 21 22 23 24 25 26 27 28 29 30 31 32 33 34 35 36 37 38 39 40 41 42 43 44 45 46 47 48 49 50
000
ASUS43 KFSD 242302
RWRFSD

WEATHER ROUNDUP FOR SE SOUTH DAKOTA/SW MINNESOTA/NW IOWA
NATIONAL WEATHER SERVICE SIOUX FALLS SD
600 PM CDT TUE MAY 24 2016

NOTE: "FAIR" INDICATES FEW OR NO CLOUDS BELOW 12,000 FEET WITH NO
SIGNIFICANT WEATHER AND OR OBSTRUCTIONS TO VISIBILITY.


SDZ038>040-050-052>070-250000-
SOUTHEAST SOUTH DAKOTA

CITY           SKY/WX    TMP DP  RH WIND       PRES   REMARKS
BROOKINGS      SUNNY     84  43  23 SW8       29.86F
CHAMBERLAIN    NOT AVBL
HURON          SUNNY     83  49  30 MISG      29.82F
MADISON        FAIR      81  43  26 CALM      29.87F
MITCHELL       SUNNY     85  45  24 S5        29.83F
SIOUX FALLS    MOSUNNY   83  49  30 CALM      29.85F
WINNER         FAIR      82  53  36 SE10      29.81F
YANKTON        SUNNY     82  55  39 E6        29.82F
$$

MNZ071-072-080-081-089-090-097-098-250000-
SOUTHWEST MINNESOTA

CITY           SKY/WX    TMP DP  RH WIND       PRES   REMARKS
FAIRMONT       SUNNY     82  52  34 CALM      29.88F
JACKSON        SUNNY     82  50  32 S5        29.90F
LUVERNE        SUNNY     82  34  17 CALM      29.87F
MARSHALL       NOT AVBL
MONTEVIDEO     SUNNY     91  41  17 NW5       29.86S
PIPESTONE      SUNNY     84  37  18 CALM      29.88F
REDWOOD FALLS  SUNNY     85  51  31 S12       29.84F
TRACY          SUNNY     86  37  17 NW8       29.87S
WINDOM         SUNNY     82  54  36 CALM      29.88F
$$

IAZ001>003-012>014-020>022-031-032-NEZ013-014-SDZ071-250000-
NORTHWEST IOWA

CITY           SKY/WX    TMP DP  RH WIND       PRES   REMARKS
DENISON        MOSUNNY   79  64  61 CALM      29.87F
ESTHERVILLE    SUNNY     81  57  43 S9        29.88F
SIOUX CITY     SUNNY     81  65  58 SE13      29.85F
SPENCER        SUNNY     82  58  43 SE5       29.88F
STORM LAKE     SUNNY     81  57  44 CALM      29.89F
$$

ABBREVIATIONS USED IN REMARKS
   TC - TEMPERATURE IN CELSIUS
  WCI - WIND CHILL INDEX
   HX - HEAT INDEX
  VSB - VISIBILITY




USA.gov is the U.S. government's official web portal to all federal, state and local government web resources and services.